DELTA 1 DEB, 42577

Orbit data source: Space-Track

DELTA 1 DEB, 42577 is space debris in SSO originally from a launch on Tue, 06 Nov 1973 UTC launched from the Air Force Western Test Range (AFWTR). Debris objects in space refer to the collection of defunct objects orbiting the Earth. Examples of debris include non-operational satellites, rocket bodies, and fragments generated from explosions, collisions, or faulty payload assembly.

Loading next visibility...
Identifier
42577, 1973-086HR
Orbit
SSO
Country
Flag of USUS
Related business
Manufacturer
Unknown
Mission
Spacecraft
Bus & Motor
Unknown
Mass
Unknown
Launch date (UTC)
1973-11-06 (52 years ago)
Launch vehicle
Unknown
Launch site
Air Force Western Test Range (AFWTR)
Object type
Payload
Rocket body
Debris
Shape & HBR
Unknown shape, 0.1 m
Radar Cross Section
Small (<0.1 m²)

Expand to show TLE details & history
Last TLE update: 2 days ago

TLE from 2 days ago
0 DELTA 1 DEB
1 42577U 73086HR  25347.03810424  .00000414  00000-0  22181-2 0  9997
2 42577 101.2389 266.7747 0078047 262.3378  96.8838 12.72092369 18638
Epoch: 2025-12-13T00:54Z
TLE epoch observation values (Epoch: 2025-12-13T00:54:52.206Z)
Latitude
Longitude
171.08606°
Altitude
1,383.768 km
Speed
7.164 km/s
True Right ascension
17h 47m 05s
True Declination
0° 00' 00"
Sunlit
Object was in daylight at epoch
Visualization orbit readout
Latitude
Unknown
Longitude
Unknown
Altitude
Unknown
Speed
Unknown
Apparent Right ascension
Unknown
Apparent Declination
Unknown
Sunlit
N/A
Visualization observer readout
Local Sidereal Time
16:34:31
Azimuth
Unknown
Elevation
Unknown
Doppler factor
Unknown
Orbital elements
Apogee altitude
1,431.395 km
Perigee altitude
1,310.437 km
Semi-major axis
7,749.053 km
Eccentricity
0.0078
Inclination
101.2389°
RAAN
266.7747°
Arg. of periapsis
262.3378°
True anomaly
97.77063°
Mean anomaly
96.8838°
Eccentric anomaly
97.32732°
Mean motion
3.18178 °/min
Orbital period
113.14 mins
BSTAR
0.0022181
Loading maneuver chart data...
Computing Atmospheric mass density...
Loading historical data...
Loading historical data...
Loading historical data...
Loading historical data...
Loading historical data...
Loading historical data...
Loading historical data...

Documentation

Showing up to 5 results
|